Chesterfield, MO

6:46 AM CST on February 27, 2017 (GMT -0600)
Spirit Of Saint Louis

Weather History for KSUS - March, 2014

Change the Weather History Date:

Sunday, March 16, 2014

  Actual Average Record
Temperature  
Mean Temperature 38 °F -  
Max Temperature 48 °F 52 °F 80 °F (2015)
Min Temperature 27 °F 30 °F 21 °F (1997)
Degree Days  
Heating Degree Days 27    
Moisture  
Dew Point 19 °F    
Average Humidity 56    
Maximum Humidity 70    
Minimum Humidity 42    
Precipitation  
Precipitation 0.00 in - - ()
Sea Level Pressure  
Sea Level Pressure 30.07 in    
Wind  
Wind Speed 18 mph (NE)    
Max Wind Speed 25 mph    
Max Gust Speed 36 mph    
Visibility 10 miles    
Events Rain , Snow    
Averages and records for this station are not official NWS values.
T = Trace of Precipitation, MM = Missing Value Source: NWS Daily Summary

Daily Weather History Graph

Daily Weather History Graph

Search for Another Location

Airport or City:

Trip Planner

Search our weather history database for the weather conditions in past years. The results will help you decide how hot, cold, wet, or windy it might be!

Date:

Astronomy

Mar. 16, 2014 Rise Set
Actual Time 7:12 AM CDT 7:10 PM CDT
Civil Twilight 6:45 AM CDT 7:37 PM CDT
Nautical Twilight 6:14 AM CDT 8:08 PM CDT
Astronomical Twilight 5:43 AM CDT 8:39 PM CDT
Moon 7:27 PM CDT (3/16) 6:56 AM CDT (3/16)
Length of Visible Light 12h 51m
Length of Day
11h 58m
Full, 100% of the Moon is Illuminated
Mar 16
Full
Mar 16
Full
Mar 23
Last Quarter
Mar 30
New
Apr 7
First Quarter

Hourly Weather History & Observations

Time (CDT) Temp. Windchill Dew Point Humidity Pressure Visibility Wind Dir Wind Speed Gust Speed Precip Events Conditions
12:54 AM 48.0 °F - 36.0 °F 63% 29.95 in 10.0 mi NE 10.4 mph - N/A   Clear
1:54 AM 45.0 °F 37.9 °F 34.0 °F 65% 29.97 in 10.0 mi NE 16.1 mph - N/A   Mostly Cloudy
2:54 AM 39.9 °F 30.0 °F 30.9 °F 70% 29.98 in 10.0 mi NE 21.9 mph 29.9 mph N/A   Mostly Cloudy
3:54 AM 37.0 °F 26.4 °F 28.0 °F 70% 29.99 in 10.0 mi NE 20.7 mph 27.6 mph N/A   Mostly Cloudy
4:54 AM 36.0 °F 24.4 °F 24.1 °F 62% 29.99 in 10.0 mi NE 23.0 mph 31.1 mph N/A   Overcast
5:54 AM 35.1 °F 23.5 °F 24.1 °F 64% 29.99 in 10.0 mi NE 21.9 mph 33.4 mph N/A   Overcast
6:54 AM 34.0 °F 21.3 °F 24.1 °F 67% 30.00 in 10.0 mi NE 25.3 mph 33.4 mph N/A   Overcast
7:54 AM 34.0 °F 22.1 °F 19.9 °F 56% 30.03 in 10.0 mi NE 21.9 mph 33.4 mph 0.00 in   Overcast
8:54 AM 33.1 °F 21.2 °F 19.9 °F 59% 30.07 in 10.0 mi NE 20.7 mph 35.7 mph 0.00 in Rain Light Rain
9:54 AM 33.1 °F 20.3 °F 17.1 °F 52% 30.09 in 10.0 mi ENE 24.2 mph 34.5 mph 0.00 in   Overcast
10:54 AM 33.1 °F 20.9 °F 18.0 °F 54% 30.11 in 10.0 mi NE 21.9 mph 29.9 mph N/A   Overcast
11:54 AM 33.1 °F 22.2 °F 18.0 °F 54% 30.11 in 10.0 mi NNE 17.3 mph 25.3 mph N/A   Overcast
12:54 PM 33.1 °F 21.9 °F 17.1 °F 52% 30.11 in 10.0 mi NNE 18.4 mph 29.9 mph N/A   Overcast
1:54 PM 32.0 °F 18.9 °F 19.0 °F 59% 30.11 in 4.0 mi NNE 24.2 mph 31.1 mph 0.00 in Snow Light Snow
2:54 PM 33.1 °F 20.9 °F 17.1 °F 52% 30.09 in 10.0 mi NE 21.9 mph 27.6 mph 0.00 in   Overcast
3:54 PM 34.0 °F 23.0 °F 12.9 °F 42% 30.09 in 10.0 mi NNE 18.4 mph 25.3 mph N/A   Overcast
4:54 PM 33.1 °F 21.2 °F 12.9 °F 43% 30.09 in 10.0 mi NNE 20.7 mph 29.9 mph N/A   Mostly Cloudy
5:54 PM 32.0 °F 20.8 °F 12.0 °F 44% 30.08 in 10.0 mi NE 17.3 mph 29.9 mph N/A   Mostly Cloudy
6:54 PM 30.9 °F 20.7 °F 12.0 °F 46% 30.10 in 10.0 mi North 13.8 mph 24.2 mph N/A   Mostly Cloudy
7:54 PM 30.0 °F 17.9 °F 12.0 °F 47% 30.11 in 10.0 mi NNE 18.4 mph 21.9 mph N/A   Clear
8:54 PM 28.9 °F 18.6 °F 12.9 °F 51% 30.13 in 10.0 mi North 12.7 mph - N/A   Clear
9:54 PM 28.9 °F 19.2 °F 12.9 °F 51% 30.13 in 10.0 mi NE 11.5 mph - N/A   Clear
10:54 PM 28.0 °F 19.3 °F 14.0 °F 56% 30.12 in 10.0 mi North 9.2 mph - N/A   Clear
11:54 PM 27.0 °F 19.5 °F 15.1 °F 61% 30.12 in 10.0 mi North 6.9 mph - N/A   Clear